Time,TemperatureF,DewpointF,PressureIn,WindDirection,WindDirectionDegrees,WindSpeedMPH,WindSpeedGustMPH,Humidity,HourlyPrecipIn,Conditions,Clouds,dailyrainin,SoftwareType,DateUTC
2013-02-14 00:02:00,29.0,-99.9,-100.00,SE,144,1.0,8.0,-999,-99.99,,,-99.99,,2013-02-14 07:02:00,
2013-02-14 00:11:00,29.0,-99.9,-100.00,SE,144,1.0,8.0,-999,-99.99,,,-99.99,,2013-02-14 07:11:00,
2013-02-14 00:22:00,27.0,-99.9,-100.00,SE,132,1.0,5.0,-999,-99.99,,,-99.99,,2013-02-14 07:22:00,
2013-02-14 00:32:00,29.0,-99.9,-100.00,South,185,0.0,3.0,-999,-99.99,,,-99.99,,2013-02-14 07:32:00,
2013-02-14 00:42:00,29.0,-99.9,-100.00,South,185,0.0,3.0,-999,-99.99,,,-99.99,,2013-02-14 07:42:00,
2013-02-14 00:50:00,28.0,-99.9,-100.00,ESE,106,1.0,6.0,-999,-99.99,,,-99.99,,2013-02-14 07:50:00,
2013-02-14 00:52:00,29.0,-99.9,-100.00,South,185,0.0,3.0,-999,-99.99,,,-99.99,,2013-02-14 07:52:00,
2013-02-14 01:20:00,27.0,-99.9,-100.00,East,82,1.0,4.0,-999,-99.99,,,-99.99,,2013-02-14 08:20:00,
2013-02-14 01:32:00,28.0,-99.9,-100.00,ESE,106,1.0,6.0,-999,-99.99,,,-99.99,,2013-02-14 08:32:00,
2013-02-14 01:43:00,28.0,-99.9,-100.00,ESE,106,1.0,6.0,-999,-99.99,,,-99.99,,2013-02-14 08:43:00,
2013-02-14 01:50:00,28.0,-99.9,-100.00,SSE,162,0.0,5.0,-999,-99.99,,,-99.99,,2013-02-14 08:50:00,
2013-02-14 02:02:00,27.0,-99.9,-100.00,East,82,1.0,4.0,-999,-99.99,,,-99.99,,2013-02-14 09:02:00,
2013-02-14 02:12:00,27.0,-99.9,-100.00,East,82,1.0,4.0,-999,-99.99,,,-99.99,,2013-02-14 09:12:00,
2013-02-14 02:20:00,25.0,-99.9,-100.00,East,99,3.0,6.0,-999,-99.99,,,-99.99,,2013-02-14 09:20:00,
2013-02-14 02:32:00,28.0,-99.9,-100.00,SSE,162,0.0,5.0,-999,-99.99,,,-99.99,,2013-02-14 09:32:00,
2013-02-14 02:42:00,28.0,-99.9,-100.00,SSE,162,0.0,5.0,-999,-99.99,,,-99.99,,2013-02-14 09:42:00,
2013-02-14 02:50:00,25.0,-99.9,-100.00,East,92,3.0,6.0,-999,-99.99,,,-99.99,,2013-02-14 09:50:00,
2013-02-14 03:02:00,25.0,-99.9,-100.00,East,99,3.0,6.0,-999,-99.99,,,-99.99,,2013-02-14 10:02:00,
2013-02-14 03:11:00,25.0,-99.9,-100.00,East,99,3.0,6.0,-999,-99.99,,,-99.99,,2013-02-14 10:11:00,
2013-02-14 03:32:00,25.0,-99.9,-100.00,East,92,3.0,6.0,-999,-99.99,,,-99.99,,2013-02-14 10:32:00,
2013-02-14 03:40:00,23.0,-99.9,-100.00,East,91,3.0,5.0,-999,-99.99,,,-99.99,,2013-02-14 10:40:00,
2013-02-14 03:42:00,25.0,-99.9,-100.00,East,92,3.0,6.0,-999,-99.99,,,-99.99,,2013-02-14 10:42:00,
2013-02-14 04:22:00,23.0,-99.9,-100.00,East,91,3.0,5.0,-999,-99.99,,,-99.99,,2013-02-14 11:22:00,
2013-02-14 04:32:00,23.0,-99.9,-100.00,East,91,3.0,5.0,-999,-99.99,,,-99.99,,2013-02-14 11:32:00,
2013-02-14 06:20:00,21.0,-99.9,-100.00,East,91,2.0,2.0,-999,-99.99,,,-99.99,,2013-02-14 13:20:00,
2013-02-14 06:52:00,21.0,-99.9,-100.00,NE,40,0.0,2.0,-999,-99.99,,,-99.99,,2013-02-14 13:52:00,
2013-02-14 07:01:00,21.0,-99.9,-100.00,East,91,2.0,2.0,-999,-99.99,,,-99.99,,2013-02-14 14:01:00,
2013-02-14 07:11:00,21.0,-99.9,-100.00,East,91,2.0,2.0,-999,-99.99,,,-99.99,,2013-02-14 14:11:00,
2013-02-14 07:32:00,21.0,-99.9,-100.00,East,101,3.0,7.0,-999,-99.99,,,-99.99,,2013-02-14 14:32:00,
2013-02-14 07:42:00,21.0,-99.9,-100.00,East,101,3.0,7.0,-999,-99.99,,,-99.99,,2013-02-14 14:42:00,
2013-02-14 07:50:00,29.0,-99.9,-100.00,NE,44,1.0,1.0,-999,-99.99,,,-99.99,,2013-02-14 14:50:00,
2013-02-14 08:02:00,25.0,-99.9,-100.00,SE,140,1.0,4.0,-999,-99.99,,,-99.99,,2013-02-14 15:02:00,
2013-02-14 08:11:00,25.0,-99.9,-100.00,SE,140,1.0,4.0,-999,-99.99,,,-99.99,,2013-02-14 15:11:00,
2013-02-14 08:22:00,25.0,-99.9,-100.00,SE,140,1.0,4.0,-999,-99.99,,,-99.99,,2013-02-14 15:22:00,
2013-02-14 08:32:00,29.0,-99.9,-100.00,NE,44,1.0,1.0,-999,-99.99,,,-99.99,,2013-02-14 15:32:00,
2013-02-14 08:42:00,29.0,-99.9,-100.00,NE,44,1.0,1.0,-999,-99.99,,,-99.99,,2013-02-14 15:42:00,
2013-02-14 11:00:00,46.0,-99.9,-100.00,NNE,30,1.0,2.0,-999,-99.99,,,-99.99,,2013-02-14 18:00:00,
2013-02-14 11:32:00,44.0,-99.9,-100.00,WNW,303,2.0,4.0,-999,-99.99,,,-99.99,,2013-02-14 18:32:00,
2013-02-14 11:40:00,49.0,-99.9,-100.00,NNE,15,0.0,2.0,-999,-99.99,,,-99.99,,2013-02-14 18:40:00,
2013-02-14 11:42:00,44.0,-99.9,-100.00,WNW,303,2.0,4.0,-999,-99.99,,,-99.99,,2013-02-14 18:42:00,
2013-02-14 11:52:00,46.0,-99.9,-100.00,NNE,30,1.0,2.0,-999,-99.99,,,-99.99,,2013-02-14 18:52:00,
2013-02-14 12:22:00,49.0,-99.9,-100.00,NNE,15,0.0,2.0,-999,-99.99,,,-99.99,,2013-02-14 19:22:00,
2013-02-14 12:32:00,49.0,-99.9,-100.00,NNE,15,0.0,2.0,-999,-99.99,,,-99.99,,2013-02-14 19:32:00,
2013-02-14 14:20:00,55.0,-99.9,-100.00,South,181,1.0,5.0,-999,-99.99,,,-99.99,,2013-02-14 21:20:00,
2013-02-14 15:02:00,55.0,-99.9,-100.00,South,181,1.0,5.0,-999,-99.99,,,-99.99,,2013-02-14 22:02:00,
2013-02-14 15:11:00,55.0,-99.9,-100.00,South,181,1.0,5.0,-999,-99.99,,,-99.99,,2013-02-14 22:11:00,
2013-02-14 15:32:00,56.0,-99.9,-100.00,WNW,294,4.0,5.0,-999,-99.99,,,-99.99,,2013-02-14 22:32:00,
2013-02-14 15:42:00,56.0,-99.9,-100.00,WNW,294,4.0,5.0,-999,-99.99,,,-99.99,,2013-02-14 22:42:00,
2013-02-14 15:52:00,56.0,-99.9,-100.00,WNW,294,4.0,5.0,-999,-99.99,,,-99.99,,2013-02-14 22:52:00,
2013-02-14 16:01:00,56.0,-99.9,-100.00,NW,322,2.0,4.0,-999,-99.99,,,-99.99,,2013-02-14 23:01:00,
2013-02-14 16:11:00,56.0,-99.9,-100.00,NW,322,2.0,4.0,-999,-99.99,,,-99.99,,2013-02-14 23:11:00,
2013-02-14 16:22:00,56.0,-99.9,-100.00,NW,322,2.0,4.0,-999,-99.99,,,-99.99,,2013-02-14 23:22:00,
2013-02-14 19:01:00,51.0,-99.9,-100.00,NW,311,1.0,1.0,-999,-99.99,,,-99.99,,2013-02-15 02:01:00,
2013-02-14 19:11:00,51.0,-99.9,-100.00,NW,311,1.0,1.0,-999,-99.99,,,-99.99,,2013-02-15 02:11:00,
2013-02-14 19:21:00,51.0,-99.9,-100.00,NW,309,1.0,1.0,-999,-99.99,,,-99.99,,2013-02-15 02:21:00,
2013-02-14 19:30:00,47.0,-99.9,-100.00,NNW,336,0.0,1.0,-999,-99.99,,,-99.99,,2013-02-15 02:30:00,
2013-02-14 19:32:00,50.0,-99.9,-100.00,West,269,2.0,2.0,-999,-99.99,,,-99.99,,2013-02-15 02:32:00,
2013-02-14 19:42:00,50.0,-99.9,-100.00,West,269,2.0,2.0,-999,-99.99,,,-99.99,,2013-02-15 02:42:00,
2013-02-14 19:52:00,50.0,-99.9,-100.00,West,269,2.0,2.0,-999,-99.99,,,-99.99,,2013-02-15 02:52:00,
2013-02-14 20:02:00,50.0,-99.9,-100.00,East,96,1.0,1.0,-999,-99.99,,,-99.99,,2013-02-15 03:02:00,
2013-02-14 20:11:00,50.0,-99.9,-100.00,East,96,1.0,1.0,-999,-99.99,,,-99.99,,2013-02-15 03:11:00,
2013-02-14 20:22:00,47.0,-99.9,-100.00,NNW,336,0.0,1.0,-999,-99.99,,,-99.99,,2013-02-15 03:22:00,
2013-02-14 22:02:00,43.0,-99.9,-100.00,ESE,105,0.0,1.0,-999,-99.99,,,-99.99,,2013-02-15 05:02:00,
2013-02-14 22:12:00,43.0,-99.9,-100.00,ESE,105,0.0,1.0,-999,-99.99,,,-99.99,,2013-02-15 05:12:00,
2013-02-14 22:20:00,38.0,-99.9,-100.00,East,89,1.0,1.0,-999,-99.99,,,-99.99,,2013-02-15 05:20:00,
2013-02-14 22:22:00,43.0,-99.9,-100.00,ESE,105,0.0,1.0,-999,-99.99,,,-99.99,,2013-02-15 05:22:00,
2013-02-14 23:02:00,38.0,-99.9,-100.00,East,89,1.0,1.0,-999,-99.99,,,-99.99,,2013-02-15 06:02:00,
2013-02-14 23:11:00,38.0,-99.9,-100.00,East,89,1.0,1.0,-999,-99.99,,,-99.99,,2013-02-15 06:11:00,
2013-02-14 23:32:00,36.0,-99.9,-100.00,North,4,0.0,2.0,-999,-99.99,,,-99.99,,2013-02-15 06:32:00,
2013-02-14 23:40:00,34.0,-99.9,-100.00,West,276,1.0,1.0,-999,-99.99,,,-99.99,,2013-02-15 06:40:00,
2013-02-14 23:42:00,36.0,-99.9,-100.00,North,4,0.0,2.0,-999,-99.99,,,-99.99,,2013-02-15 06:42:00,